User: anonymous   Login
Location: Newark
(54.2500°N, 9.1833°E)
Time: 12:53:32
(UTC+00:00)
Language:

Tiros 1 despin weight - Orbit

View from above orbital plane
View from above orbital plane
View from above satellite
View from above satellite

Ground track
Ground track

The orbit data is extracted from the following two-line orbital elements,

1   115U 60002D   19344.05838379 -.00000114  00000-0  13647-4 0  9991
2   115  48.1663 109.7156 0034350 130.7902 229.5999 14.83516163184706
Epoch (UTC): 10 December 2019 01:24:04
Eccentricity: 0.0034350
inclination: 48.1663°
perigee height: 594 km
apogee height: 642 km
right ascension of ascending node: 109.7156°
argument of perigee: 130.7902°
revolutions per day: 14.83516163
mean anomaly at epoch: 229.5999°
orbit number at epoch: 18470

The dashed part of the orbit path shows where the satellite is in the earth's shadow,  

DLR